[[{"header":{"parameterUnit":"m.s-1","parameterCategory":1,"la1":30.2991,"la2":30.254,"lo1":-89.0895,"lo2":-89.0444,"dy":0.0017,"dx":0.0017,"nx":28,"ny":28,"refTime":"2024-05-29T09:00:00:Z","depth":0,"parameterNumber":2,"parameterNumberName":"U-component_of_WINDS"},"data":[0,0,0,0,0,0,0,0,0,0,0,0,0,0,0,0,0,0,0,0,0,0,0,0,0,0,0,0,0,0,0,0,0,0,0,0,0,0,0,0,0,0,0,0,0,0,0,0,0,0,0,0,0,0,0,0,0,0,-3.662,-3.6621,0,-3.6678,-3.6679,-3.668,-3.6572,-3.6569,-3.6565,-3.6562,-3.662,-3.6625,-3.663,0,0,0,0,0,0,0,0,0,0,0,0,0,-3.6415,-3.6419,-3.662,-3.6621,-3.6622,-3.6678,-3.6679,-3.668,-3.6573,-3.6568,-3.6564,-3.656,-3.6619,-3.6625,-3.663,0,0,0,0,0,0,0,0,0,0,0,0,0,-3.6492,-3.6421,-3.662,-3.6575,-3.6572,-3.6678,-3.6679,-3.668,-3.6574,-3.6568,-3.6563,-3.6558,-3.6617,-3.6624,-3.6631,-3.6784,0,0,-3.6654,-3.6657,0,0,0,0,0,0,0,0,-3.6488,-3.6499,-3.6581,-3.6578,-3.6575,-3.6613,-3.6628,-3.6715,-3.6575,-3.6573,-3.6562,-3.6555,-3.6622,-3.6629,-3.6651,-3.6787,-3.6789,-3.6654,-3.6659,-3.6662,-3.6664,0,0,0,0,0,0,0,-3.6482,-3.6496,-3.6643,-3.6582,-3.6579,-3.6552,-3.6557,-3.6644,-3.6627,-3.6573,-3.6565,-3.6573,-3.6619,-3.6644,-3.6652,-3.679,-3.6654,-3.6661,-3.6665,-3.6668,-3.7054,-3.7059,0,0,0,0,0,0,-3.6483,-3.6493,-3.6641,-3.6645,-3.6517,-3.656,-3.6565,-3.6606,-3.6626,-3.6623,-3.6578,-3.6568,-3.6635,-3.6643,-3.6653,-3.6834,-3.6662,-3.6669,-3.6673,-3.7048,-3.7055,-3.7061,0,0,0,0,0,0,-3.6479,-3.6497,-3.6639,-3.6567,-3.6583,-3.6569,-3.6615,-3.661,-3.6635,-3.663,-3.6626,-3.6607,-3.6631,-3.6643,-3.6752,-3.6835,-3.6672,-3.6679,-3.7041,-3.705,-3.7058,-3.7197,0,0,0,0,0,0,-3.6474,-3.6496,-3.6555,-3.6569,-3.6587,-3.6738,-3.662,-3.6615,-3.6648,-3.6636,-3.6656,-3.6654,-3.6627,-3.6742,-3.676,-3.6842,-3.6684,-3.7033,-3.7045,-3.7055,-3.7185,-3.721,-3.7231,0,0,0,0,0,-3.6467,-3.6591,-3.6558,-3.6577,-3.666,-3.6743,-3.6753,-3.672,-3.6655,-3.6713,-3.671,-3.6653,-3.6823,-3.6754,-3.6773,-3.6859,-3.7028,-3.7042,-3.7054,-3.7175,-3.7205,-3.723,0,0,0,0,0,0,-3.6587,-3.6592,-3.6556,-3.6689,-3.6716,-3.6725,-3.6797,-3.6753,-3.6799,-3.6786,-3.6742,-3.6748,-3.6866,-3.6873,-3.6796,-3.7008,-3.6914,-3.6932,-3.7,-3.7028,-3.705,-3.7047,-3.669,0,0,0,0,0,-3.6629,-3.6697,-3.6697,-3.6815,-3.683,-3.6812,-3.6847,-3.6819,-3.6845,-3.6856,-3.6861,-3.6888,-3.6947,-3.6987,-3.7042,-3.7185,-3.7188,-3.7253,-3.7276,-3.7294,-3.7311,-3.7388,-3.7417,-3.7104,-3.7104,-3.7104,0,0,-3.6717,-3.6728,-3.6773,-3.6839,-3.6857,-3.6928,-3.6822,-3.6901,-3.6953,-3.6868,-3.6972,-3.6976,-3.7004,-3.7131,-3.7187,-3.7141,-3.7398,-3.7311,-3.7326,-3.7332,-3.7405,-3.7434,-3.7461,-3.7113,-3.7112,-3.711,0,0,-3.6913,-3.6928,-3.7028,-3.7048,-3.7077,-3.7063,-3.7088,-3.7103,-3.7102,-3.7206,-3.7144,-3.7204,-3.7307,-3.733,-3.7355,-3.7559,-3.7509,-3.7578,-3.7697,-3.7773,-3.7797,-3.7819,-3.7894,-3.7921,-3.7593,-3.7594,-3.7594,0,-3.7019,-3.7124,-3.7085,-3.7169,-3.72,-3.7126,-3.7227,-3.7248,-3.7293,-3.7316,-3.7262,-3.739,-3.7403,-3.7535,-3.7585,-3.7607,-3.7634,-3.7576,-3.7797,-3.7818,-3.7838,-3.7909,-3.7937,-3.7602,-3.7601,-3.76,-3.7599,0,-3.7253,-3.7326,-3.7403,-3.7449,-3.7488,-3.7581,-3.7556,-3.76,-3.7568,-3.7561,-3.7667,-3.768,-3.7736,-3.7765,-3.7734,-3.7893,-3.7863,-3.7804,-3.771,-3.7877,-3.7943,-3.7969,-3.7614,-3.7611,-3.7608,-3.7606,0,0,-3.7529,-3.7552,-3.7581,-3.7601,-3.7627,-3.7683,-3.7771,-3.7826,-3.7865,-3.7898,-3.7972,-3.806,-3.8006,-3.8034,-3.8005,-3.8071,-3.8234,-3.8004,-3.8004,-3.8048,-3.8411,-3.8457,-3.8489,-3.82,-3.8205,-3.8209,-3.8409,0,-3.7725,-3.7879,-3.7846,-3.7997,-3.8065,-3.7994,-3.8071,-3.8095,-3.809,-3.8146,-3.8139,-3.8204,-3.8126,-3.8143,-3.8205,-3.8201,-3.8307,-3.8186,-3.8269,-3.8272,-3.8267,-3.8523,-3.8572,-3.876,-3.8434,-3.8439,-3.8442,0,-3.7976,-3.8019,-3.8177,-3.8192,-3.8219,-3.8289,-3.8337,-3.8391,-3.8417,-3.8408,-3.844,-3.8398,-3.8486,-3.8388,-3.8508,-3.8427,-3.8458,-3.8462,-3.8468,-3.8476,-3.8369,-3.854,-3.8819,-3.8849,-3.8481,-3.8478,-3.8475,0,-3.8164,-3.8261,-3.8368,-3.8388,-3.8407,-3.8458,-3.8469,-3.8489,-3.8524,-3.8565,-3.8588,-3.8638,-3.8667,-3.8707,-3.868,-3.8611,-3.8805,-3.8705,-3.8801,-3.8802,-3.8847,-3.8845,-3.9138,-3.8864,-3.8864,-3.8863,-3.8862,0,-3.8389,-3.8489,-3.8454,-3.852,-3.8629,-3.859,-3.8699,-3.8701,-3.8719,-3.8785,-3.8725,-3.8788,-3.8747,-3.8806,-3.8785,-3.8888,-3.8901,-3.8897,-3.8891,-3.8904,-3.8905,-3.8926,-3.8913,-3.887,-3.8869,-3.8867,-3.8866,0,-3.8619,-3.8599,-3.8712,-3.8721,-3.8725,-3.8806,-3.8814,-3.8875,-3.8864,-3.8948,-3.8965,-3.8949,-3.9015,-3.8991,-3.9062,-3.9047,-3.918,-3.9155,-3.9172,-3.9167,-3.9265,-3.9257,-3.9583,-3.9624,-3.9322,-3.9325,-3.9327,0,-3.8765,-3.884,-3.8857,-3.8897,-3.8912,-3.8976,-3.9012,-3.8976,-3.9015,-3.905,-3.9107,-3.9168,-3.9215,-3.9324,-3.9318,-3.9372,-3.9349,-3.946,-3.9357,-3.9368,-3.9354,-3.9351,-3.9358,-3.9481,-3.9485,-3.9488,-3.949,0,-3.9026,-3.9013,-3.9067,-3.9118,-3.9163,-3.9201,-3.9234,-3.9269,-3.9235,-3.9282,-3.9349,-3.9386,-3.9458,-3.952,-3.9567,-3.9577,-3.9529,-3.9522,-3.9547,-3.9563,-3.957,-3.957,-3.9231,-3.9515,-3.9513,-3.9511,-3.951,-3.9509,-3.922,-3.9284,-3.9306,-3.9369,-3.939,-3.9422,-3.948,-3.9477,-3.9533,-3.9589,-3.9564,-3.9642,-3.9664,-3.9724,-3.974,-3.9801,-3.9758,-3.9794,-3.9804,-3.9814,-3.9828,-3.9559,-3.9809,-3.9808,-3.9807,-3.9807,-3.9806,0,-3.948,-3.9491,-3.9549,-3.9597,-3.9646,-3.9595,-3.9629,-3.9673,-3.9743,-3.9768,-3.9816,-3.9893,-3.9953,-3.9951,-4.0006,-4.0055,-4.0034,-4.0071,-4.0068,-4.0071,-3.9862,-3.9835,-4.0087,-4.0087,-4.0086,-4.0086,-4.0086,-4.0086,-3.9622,-3.9728,-3.9717,-3.9832,-3.9841,-3.9918,-3.9942,-3.9971,-3.9991,-4.0081,-4.013,-4.0129,-4.0144,-4.0199,-4.0251,-4.0249,-4.0273,-4.0318,-4.0308,-4.0113,-4.0086,-4.0059,-4.0034,-4.0323,-4.0324,-4.0513,-4.0515,-4.0516]},{"header":{"parameterUnit":"m.s-1","parameterCategory":1,"la1":30.2991,"la2":30.254,"lo1":-89.0895,"lo2":-89.0444,"dy":0.0017,"dx":0.0017,"nx":28,"ny":28,"refTime":"2024-05-29T09:00:00:Z","depth":0,"parameterNumber":3,"parameterNumberName":"V-component_of_WINDS"},"data":[0,0,0,0,0,0,0,0,0,0,0,0,0,0,0,0,0,0,0,0,0,0,0,0,0,0,0,0,0,0,0,0,0,0,0,0,0,0,0,0,0,0,0,0,0,0,0,0,0,0,0,0,0,0,0,0,0,0,-3.3405,-3.3405,0,-3.346,-3.346,-3.3461,-3.3418,-3.3416,-3.3414,-3.3412,-3.3466,-3.3469,-3.3472,0,0,0,0,0,0,0,0,0,0,0,0,0,-3.3258,-3.3261,-3.3404,-3.3405,-3.3406,-3.346,-3.346,-3.3461,-3.3418,-3.3416,-3.3414,-3.3412,-3.3465,-3.3469,-3.3472,0,0,0,0,0,0,0,0,0,0,0,0,0,-3.3318,-3.3262,-3.3404,-3.3391,-3.339,-3.3459,-3.346,-3.3461,-3.3419,-3.3416,-3.3413,-3.3411,-3.3464,-3.3468,-3.3473,-3.3557,0,0,-3.3487,-3.3489,0,0,0,0,0,0,0,0,-3.3315,-3.3324,-3.3392,-3.3392,-3.3391,-3.3429,-3.3428,-3.3493,-3.3419,-3.3408,-3.3412,-3.3409,-3.3456,-3.3461,-3.3477,-3.356,-3.3562,-3.3488,-3.3491,-3.3493,-3.3494,0,0,0,0,0,0,0,-3.3311,-3.3321,-3.3426,-3.3393,-3.3393,-3.3381,-3.3387,-3.344,-3.3446,-3.3409,-3.3406,-3.3413,-3.3455,-3.3473,-3.3478,-3.3563,-3.3488,-3.3492,-3.3495,-3.3496,-3.3716,-3.3719,0,0,0,0,0,0,-3.3308,-3.3318,-3.3424,-3.3428,-3.3346,-3.3386,-3.3392,-3.342,-3.3446,-3.3447,-3.3415,-3.3411,-3.3466,-3.3473,-3.348,-3.358,-3.3493,-3.3497,-3.35,-3.3713,-3.3717,-3.372,0,0,0,0,0,0,-3.3305,-3.3318,-3.3422,-3.3372,-3.3384,-3.3391,-3.3423,-3.3422,-3.344,-3.3451,-3.3451,-3.3433,-3.3464,-3.3473,-3.3538,-3.3581,-3.3499,-3.3503,-3.3709,-3.3714,-3.3718,-3.3781,0,0,0,0,0,0,-3.3301,-3.3318,-3.3351,-3.3373,-3.3387,-3.3481,-3.3426,-3.3425,-3.3449,-3.3443,-3.3467,-3.3469,-3.3463,-3.3532,-3.3543,-3.3586,-3.3507,-3.3706,-3.3712,-3.3717,-3.3775,-3.3787,-3.3797,0,0,0,0,0,-3.3296,-3.3366,-3.3353,-3.3366,-3.3429,-3.3484,-3.3492,-3.3484,-3.3452,-3.3485,-3.3492,-3.3468,-3.3575,-3.3539,-3.3551,-3.3596,-3.3703,-3.371,-3.3716,-3.377,-3.3785,-3.3797,0,0,0,0,0,0,-3.3347,-3.3368,-3.3354,-3.3433,-3.3457,-3.3476,-3.3517,-3.35,-3.3533,-3.3526,-3.3515,-3.3521,-3.3589,-3.3599,-3.3558,-3.3679,-3.3633,-3.3643,-3.367,-3.3684,-3.3695,-3.3691,-3.3511,0,0,0,0,0,-3.3367,-3.3411,-3.3427,-3.3495,-3.3508,-3.3511,-3.3534,-3.3526,-3.355,-3.356,-3.3571,-3.3595,-3.3633,-3.3659,-3.3695,-3.3776,-3.378,-3.3813,-3.3824,-3.3833,-3.3842,-3.3885,-3.3899,-3.3742,-3.3742,-3.3742,0,0,-3.341,-3.3427,-3.3455,-3.3505,-3.3523,-3.3567,-3.3519,-3.3568,-3.3601,-3.3567,-3.363,-3.3639,-3.3664,-3.3737,-3.377,-3.3747,-3.3886,-3.3842,-3.3849,-3.3853,-3.3893,-3.3908,-3.3921,-3.3747,-3.3746,-3.3745,0,0,-3.351,-3.3527,-3.3586,-3.3605,-3.3632,-3.3634,-3.3648,-3.367,-3.3675,-3.3737,-3.3713,-3.375,-3.3818,-3.3836,-3.3855,-3.3961,-3.394,-3.3973,-3.4031,-3.4073,-3.4085,-3.4096,-3.4134,-3.4148,-3.3981,-3.3982,-3.3982,0,-3.3559,-3.3626,-3.3618,-3.3669,-3.3691,-3.3663,-3.3722,-3.374,-3.3778,-3.3793,-3.3768,-3.3851,-3.3866,-3.3943,-3.3969,-3.3985,-3.3999,-3.397,-3.4084,-3.4095,-3.4105,-3.4141,-3.4155,-3.3985,-3.3985,-3.3984,-3.3984,0,-3.3684,-3.3731,-3.3775,-3.3813,-3.384,-3.3895,-3.3894,-3.3922,-3.3912,-3.3915,-3.3979,-3.3996,-3.4034,-3.4052,-3.4042,-3.4128,-3.4113,-3.4086,-3.404,-3.4124,-3.4158,-3.4171,-3.3991,-3.3989,-3.3988,-3.3987,0,0,-3.3818,-3.3851,-3.3867,-3.3884,-3.3912,-3.3948,-3.4,-3.4039,-3.4063,-3.409,-3.4133,-3.419,-3.4166,-3.4187,-3.4178,-3.4215,-3.4298,-3.4184,-3.4184,-3.4204,-3.4392,-3.4412,-3.4428,-3.4284,-3.4287,-3.4289,-3.439,0,-3.392,-3.4013,-3.4006,-3.4093,-3.4136,-3.411,-3.4155,-3.4177,-3.4181,-3.4217,-3.4221,-3.4262,-3.4227,-3.4239,-3.4275,-3.4281,-3.4335,-3.4273,-3.4323,-3.4325,-3.4318,-3.4446,-3.4467,-3.4562,-3.4403,-3.4405,-3.4407,0,-3.405,-3.4083,-3.4174,-3.4196,-3.4213,-3.4255,-3.429,-3.4325,-3.4348,-3.4348,-3.4372,-3.4357,-3.4409,-3.4362,-3.4432,-3.439,-3.441,-3.4416,-3.4419,-3.4424,-3.4371,-3.4454,-3.4593,-3.4607,-3.4427,-3.4426,-3.4424,0,-3.4139,-3.4205,-3.4268,-3.4283,-3.431,-3.4339,-3.4352,-3.4372,-3.4396,-3.4426,-3.4441,-3.4476,-3.4495,-3.4522,-3.4517,-3.4484,-3.4589,-3.4542,-3.459,-3.4591,-3.4614,-3.4613,-3.4758,-3.4627,-3.4627,-3.4626,-3.4626,0,-3.4253,-3.431,-3.4308,-3.4347,-3.441,-3.4401,-3.4463,-3.4472,-3.449,-3.4529,-3.4508,-3.4545,-3.4536,-3.4572,-3.4569,-3.4627,-3.4636,-3.4637,-3.4636,-3.4639,-3.4639,-3.4652,-3.4646,-3.463,-3.4629,-3.4629,-3.4628,0,-3.4362,-3.4364,-3.4431,-3.4451,-3.4457,-3.4502,-3.4518,-3.4554,-3.4557,-3.4607,-3.4618,-3.4622,-3.4663,-3.4661,-3.4708,-3.4705,-3.4777,-3.4768,-3.477,-3.4768,-3.4817,-3.4812,-3.4976,-3.4996,-3.4852,-3.4853,-3.4854,0,-3.4435,-3.4478,-3.4503,-3.4528,-3.4543,-3.4583,-3.4608,-3.46,-3.4626,-3.4656,-3.4688,-3.4728,-3.4759,-3.4827,-3.4833,-3.4868,-3.486,-3.4914,-3.4865,-3.4867,-3.486,-3.4858,-3.4862,-3.4924,-3.4926,-3.4927,-3.4928,0,-3.4564,-3.4562,-3.4598,-3.4635,-3.4665,-3.4693,-3.4719,-3.474,-3.4735,-3.4765,-3.4808,-3.4833,-3.4881,-3.492,-3.4954,-3.4965,-3.4946,-3.4944,-3.4957,-3.4961,-3.4961,-3.4962,-3.4797,-3.494,-3.4939,-3.4938,-3.4937,-3.4937,-3.4657,-3.4694,-3.4717,-3.4758,-3.4777,-3.4801,-3.4836,-3.4843,-3.4879,-3.4919,-3.4912,-3.496,-3.498,-3.5024,-3.5038,-3.5075,-3.5055,-3.5074,-3.5079,-3.5084,-3.5089,-3.4955,-3.5081,-3.508,-3.508,-3.508,-3.508,0,-3.4784,-3.4798,-3.4836,-3.4873,-3.4905,-3.4885,-3.4912,-3.494,-3.4983,-3.5004,-3.5036,-3.5085,-3.5123,-3.5132,-3.5168,-3.5196,-3.5188,-3.5205,-3.5203,-3.5206,-3.5105,-3.509,-3.5211,-3.5211,-3.5211,-3.5211,-3.5211,-3.5211,-3.4855,-3.4916,-3.4918,-3.4988,-3.5,-3.5048,-3.5065,-3.5087,-3.5105,-3.5161,-3.5193,-3.5199,-3.5215,-3.5252,-3.5286,-3.5287,-3.5301,-3.5323,-3.5321,-3.5226,-3.5213,-3.5201,-3.5186,-3.5326,-3.5326,-3.5419,-3.542,-3.542]}]]